This is the latest recevied weather packets stored in our database for station/object N1IJV-10. If no packets are shown the sender has not sent any weather packets the latest 10 day(s).
| Time | Temp. | Humidity | Pressure | Rain* | Wind** | Luminosity | Snow |
|---|---|---|---|---|---|---|---|
| 1777904147 | 18.89° C | 57% | 1002.6 hPa | 0 mm | - | 492 W/m² | - |
| 1777903844 | 18.89° C | 57% | 1002.6 hPa | 0 mm | - | 484 W/m² | - |
| 1777903540 | 17.78° C | 60% | 1002.8 hPa | 0 mm | - | 440 W/m² | - |
| 1777903237 | 17.22° C | 60% | 1003 hPa | 0 mm | - | 103 W/m² | - |
| 1777902933 | 17.22° C | 61% | 1002.9 hPa | 0 mm | - | 383 W/m² | - |
| 1777902630 | 16.67° C | 63% | 1002.8 hPa | 0 mm | - | 323 W/m² | - |
| 1777902327 | 16.11° C | 63% | 1002.9 hPa | 0 mm | - | 252 W/m² | - |
| 1777902024 | 15.56° C | 64% | 1003 hPa | 0 mm | - | 59 W/m² | - |
| 1777901723 | 15.56° C | 66% | 1003.2 hPa | 0 mm | - | 56 W/m² | - |
| 1777901420 | 15° C | 66% | 1003.4 hPa | 0 mm | - | 50 W/m² | - |
| 1777901117 | 15° C | 68% | 1003.2 hPa | 0 mm | - | 58 W/m² | - |
| 1777900815 | 14.44° C | 70% | 1003.3 hPa | 0 mm | - | 52 W/m² | - |
| 1777900512 | 13.89° C | 71% | 1003.4 hPa | 0 mm | - | 47 W/m² | - |
| 1777900209 | 13.89° C | 72% | 1003.4 hPa | 0 mm | - | 46 W/m² | - |
| 1777899905 | 13.33° C | 73% | 1003.4 hPa | 0 mm | - | 58 W/m² | - |
| 1777899602 | 13.33° C | 75% | 1003.3 hPa | 0 mm | - | 43 W/m² | - |
| 1777899299 | 12.78° C | 75% | 1003.3 hPa | 0 mm | - | 44 W/m² | - |
| 1777898997 | 12.22° C | 78% | 1003.4 hPa | 0 mm | - | 40 W/m² | - |
| 1777898694 | 12.22° C | 79% | 1003.6 hPa | 0 mm | - | 41 W/m² | - |
| 1777898391 | 11.67° C | 79% | 1003.4 hPa | 0 mm | - | 38 W/m² | - |
| 1777898089 | 11.67° C | 80% | 1003.3 hPa | 0 mm | - | 39 W/m² | - |
| 1777897785 | 11.11° C | 80% | 1003.4 hPa | 0 mm | - | 37 W/m² | - |
| 1777897481 | 11.11° C | 82% | 1003.3 hPa | 0 mm | - | 36 W/m² | - |
| 1777897177 | 10.56° C | 82% | 1003.5 hPa | 0 mm | - | 35 W/m² | - |
| 1777896873 | 10.56° C | 84% | 1003.5 hPa | 0 mm | - | 33 W/m² | - |
* Rain latest hour (hover to see other rain measurements)
** Current wind speed in m/s (hover to see current wind gust speed)